Home   Weather   Modi'in-Maccabim-Re'ut   Past weeks

Flag for Israel Past Weather in Modi'in-Maccabim-Re'ut, Israel — Yesterday and Last 2 Weeks

Now
84 °F

Scattered clouds.


Feels Like: 83 °F
Forecast: 66 / 82 °F
Wind: 9 mph from West

Location: Ben Gurion International Airport

Current Time: Sep 27, 2016 at 1:30:41 PM

Latest Report: Sep 27, 2016 at 12:50 PM


Visibility: 10 mi

Pressure: 29.95 "Hg

Humidity: 40%

Dew Point: 57 °F

Location of Modi'in-Maccabim-Re'utLocation

Past Weather in Modi'in-Maccabim-Re'ut — Graph

°F

Modi'in-Maccabim-Re'ut Temperature Yesterday

Maximum temperature yesterday: 84 °F (at 12:50 PM)
Minimum temperature yesterday: 70 °F (at 6:20 AM)
Average temperature yesterday: 77 °F

High & Low Weather Summary for the Past Weeks

 TemperatureHumidityPressure
High90 °F (Sep 12, 1:20 PM)83% (Sep 18, 6:20 AM)29.98 "Hg (Sep 18, 6:20 AM)
Low68 °F (Sep 25, 6:50 AM)24% (Sep 25, 11:50 AM)29.74 "Hg (Sep 25, 1:20 PM)
Average80 °F61%29.88 "Hg
* Reported Sep 12 12:20 PM — Sep 27 12:20 PM, Modi'in-Maccabim-Re'ut, Weather by CustomWeather, © 2016

Note: Actual official high and low records may vary slightly from our data, if they occured in-between our weather recording intervals... More about our weather records

Advertising

Modi'in-Maccabim-Re'ut Weather History for the Previous 24 Hours

Scroll right to see more
 ConditionsComfort  
Time TempWeatherWind HumidityBarometerVisibility
12:20 PM
Tue, Sep 27
82 °FScattered clouds.10 mph42%29.98 "HgN/A
11:50 AM84 °FScattered clouds.7 mph40%29.98 "HgN/A
11:20 AM82 °FScattered clouds.3 mph45%29.98 "HgN/A
10:50 AM81 °FPassing clouds.6 mph51%29.98 "HgN/A
10:20 AM82 °FScattered clouds.5 mph48%29.98 "HgN/A
9:50 AM81 °FPassing clouds.3 mph51%29.98 "HgN/A
9:20 AM77 °FScattered clouds.6 mph54%29.98 "HgN/A
8:50 AM75 °FScattered clouds.8 mph54%29.98 "HgN/A
8:20 AM73 °FScattered clouds.3 mph57%29.98 "HgN/A
7:50 AM73 °FScattered clouds.2 mph57%29.95 "HgN/A
7:20 AM72 °FScattered clouds.5 mph57%29.95 "HgN/A
6:50 AM70 °FScattered clouds.5 mph64%29.95 "HgN/A
6:20 AM70 °FPassing clouds.5 mph60%29.95 "HgN/A
5:50 AM72 °FPassing clouds.5 mph61%29.92 "HgN/A
5:20 AM70 °FPassing clouds.3 mph64%29.92 "HgN/A
4:50 AM70 °FPassing clouds.3 mph64%29.92 "HgN/A
4:20 AM70 °FPassing clouds.5 mph64%29.92 "HgN/A
3:50 AM70 °FPassing clouds.2 mph64%29.92 "HgN/A
3:20 AM70 °FPassing clouds.3 mph64%29.92 "HgN/A
2:50 AM72 °FPassing clouds.5 mph61%29.92 "HgN/A
2:20 AM72 °FPassing clouds.3 mph61%29.92 "HgN/A
1:50 AM73 °FPassing clouds.6 mph57%29.95 "HgN/A
1:20 AM73 °FPassing clouds.3 mph57%29.95 "HgN/A
12:50 AM73 °FPassing clouds.3 mph57%29.95 "HgN/A
12:20 AM73 °FPassing clouds.2 mph57%29.95 "HgN/A
11:50 PM
Mon, Sep 26
75 °FPassing clouds.5 mph54%29.95 "HgN/A
11:20 PM75 °FPassing clouds.2 mph54%29.95 "HgN/A
10:50 PM75 °FPassing clouds.3 mph54%29.95 "HgN/A
10:20 PM75 °FPassing clouds.3 mph54%29.95 "HgN/A
9:50 PM75 °FPassing clouds.5 mph54%29.95 "HgN/A
9:20 PM75 °FPassing clouds.3 mph54%29.95 "HgN/A
8:50 PM77 °FPassing clouds.6 mph51%29.95 "HgN/A
8:20 PM77 °FPassing clouds.7 mph54%29.92 "HgN/A
7:50 PM77 °FPassing clouds.6 mph54%29.92 "HgN/A
7:20 PM79 °FPassing clouds.9 mph51%29.92 "HgN/A
6:50 PM79 °FClear.8 mph51%29.89 "Hg10 mi
6:20 PM79 °FSunny.9 mph48%29.89 "Hg10 mi
5:50 PM81 °FPassing clouds.10 mph45%29.89 "HgN/A
5:20 PM81 °FPassing clouds.12 mph45%29.89 "HgN/A
4:50 PM81 °FPassing clouds.10 mph48%29.89 "HgN/A
4:20 PM82 °FPassing clouds.12 mph45%29.86 "HgN/A
3:50 PM82 °FScattered clouds.14 mph45%29.86 "HgN/A
3:20 PM82 °FSunny.13 mph45%29.86 "Hg10 mi
2:50 PM82 °FSunny.12 mph45%29.86 "Hg10 mi
2:20 PM82 °FScattered clouds.12 mph45%29.86 "HgN/A
1:50 PM82 °FScattered clouds.12 mph45%29.86 "HgN/A
1:20 PM82 °FScattered clouds.10 mph45%29.89 "HgN/A
Weather by CustomWeather, © 2016

See weather overviewHow to use our weather pages